STARLINK-32793, 62874

Orbit data source: Space-Track

STARLINK-32793, 62874 is a payload satellite owned by SpaceX/Seattle (US) in LEO that was launched on Sat, 01 Feb 2025 UTC via an FALCON 9 launch vehicle from the Air Force Western Test Range (AFWTR). Payload-class satellites include a variety of spacecraft equipped with specific instruments for various scientific and technological missions. These include communications satellites like Starlink; space stations such as the ISS; scientific satellites like the Hubble; Earth observation satellites from companies like Planet Labs, Umbra, and HawkEye 360; GPS; miniature CubeSats for education and research; and military/defense satellites.

Loading next visibility...
Identifier
62874, 2025-022W
Orbit
LEO
Country
Flag of USUS
Related business
Manufacturer
SpaceX/Seattle
Mission
Operational Commercial Communications
Bus & Motor
STARLINK V2M, Unknown motor
Mass
730 kg wet, ~700 kg dry
Launch date (UTC)
2025-02-01 (1 year ago)
Launch vehicle
FALCON 9
Launch site
Air Force Western Test Range (AFWTR)
Object type
Payload
Rocket body
Debris
Shape & HBR
Box + 2 Pan, 17.7 m
Radar Cross Section
33.884 m², Large (>1 m²)

Expand to show TLE details & history
Last TLE update: 9 hours ago

TLE from 9 hours ago
0 STARLINK-32793
1 62874U 25022W   26036.91584091  .00040889  00000-0  13852-2 0  9992
2 62874  53.1574 277.3310 0001102  48.8881 311.2215 15.30197640 57034
Epoch: 2026-02-05T21:58Z
TLE epoch observation values (Epoch: 2026-02-05T21:58:48.654Z)
Latitude
-0.00001°
Longitude
171.56706°
Altitude
475.624 km
Speed
7.629 km/s
True Right ascension
18h 29m 19s
True Declination
0° 00' 00"
Sunlit
Object was in daylight at epoch
Visualization orbit readout
Latitude
Unknown
Longitude
Unknown
Altitude
Unknown
Speed
Unknown
Apparent Right ascension
Unknown
Apparent Declination
Unknown
Sunlit
N/A
Visualization observer readout
Local Sidereal Time
09:05:04
Azimuth
Unknown
Elevation
Unknown
Doppler factor
Unknown
Orbital elements
Apogee altitude
476.234 km
Perigee altitude
474.724 km
Semi-major axis
6,853.616 km
Eccentricity
0.00011
Inclination
53.1574°
RAAN
277.331°
Arg. of periapsis
48.8881°
True anomaly
311.212°
Mean anomaly
311.2215°
Eccentric anomaly
311.21675°
Mean motion
3.82528 °/min
Orbital period
94.11 mins
BSTAR
0.0013852
Loading maneuver chart data...
Computing Atmospheric mass density...
Loading historical data...
Loading historical data...
Loading historical data...
Loading historical data...
Loading historical data...
Loading historical data...
Loading historical data...

Documentation

Showing up to 5 results
|